Location: Casteau
(50.5142°N, 4.0161°E)
Time: 05:19:41
(UTC+00:00)

Cosmos 1805 - Pass Details

Date: 18 September 2020
Orbit: 524 x 531 km, 82.5° (Epoch: 22 October)

Event Time Altitude Azimuth Distance (km) Brightness Sun altitude
Exits shadow 20:35:20 54° 278° (W) 652 3.9 -25.2°
Maximum altitude 20:35:25 54° 283° (WNW) 651 3.9 -25.2°
Drops below altitude 10° 20:39:17 10° 2° (N) 1,795 6.4 -25.7°
Sets 20:41:29 0° 7° (N) 2,691 7.3 -25.9°
